RH
20 24 48 47 54 66 66 64 63 57 59 69 75 85 91 91 81 73 84 87 85 88 82 75 71 70 73 74 73 70 62 60 71 80 77 72 75 84 80 83 79 71 74
28 42 59 47 60 66 69 68 72 82 72 75 74 87 90 84 88 84 80 78 89 88 90 84 87 89 92 93 88 81 77 78 80 82 82 79 77 76 74 79 78 74 77
53 58 55 53 56 64 68 64 69 72 71 64 70 88 90 85 85 88 85 78 68 84 83 82 88 90 83 87 91 89 89 87 86 84 80 86 84 79 79 79 81 75 76
57 56 55 60 80 72 71 80 76 72 68 61 85 82 90 87 81 81 97 79 76 89 87 84 84 90 82 76 79 89 89 86 77 91 88 84 84 83 82 81 80 78 72
72 81 92 95 99 98 95 85 79 88 93 78 84 89 87 98 93 94 99 80 82 74 70 69 87 78 79 79 76 67 75 73 78 87 84 83 78 78 99 88 81 79 70
82 84 99 95 98 99 98 97 100 100 100 100 92 100 99 98 96 97 94 100 93 99 92 91 79 71 74 68 72 74 75 57 64 74 73 78 72 82 80 88 86 81 80
93 99 99 100 100 100 100 94 98 100 100 100 98 92 96 99 99 98 94 98 99 95 83 81 79 72 71 81 77 60 69 81 81 77 72 72 80 83 98 93 91 89 83
100 100 100 100 100 100 98 92 89 88 91 98 94 91 84 98 99 95 95 97 91 87 74 87 88 73 68 76 80 83 80 89 94 88 91 85 80 79 100 100 84 88 91
100 100 99 100 100 94 94 91 88 84 88 94 95 82 73 85 81 85 80 96 84 78 93 92 89 72 74 82 84 79 81 86 95 97 98 95 74 79 86 81 86 81 92
100 100 99 97 92 95 89 84 79 84 86 86 88 88 96 89 76 81 86 91 90 92 93 82 84 77 82 88 87 84 83 81 76 98 93 93 80 82 89 79 80 88 84
100 99 96 87 84 80 71 60 62 64 66 68 69 73 74 78 83 86 89 92 98 100 92 91 88 87 86 82 79 79 89 84 78 86 81 86 77 88 91 90 91 91 70
97 97 92 84 67 62 54 55 47 52 54 56 56 53 53 50 51 55 58 60 62 64 64 67 71 80 84 87 82 86 83 92 96 87 88 90 93 97 100 96 92 75 59
68 66 64 57 55 55 54 48 45 42 40 38 36 36 37 40 41 42 43 44 44 46 51 57 60 61 57 62 92 99 100 100 99 100 99 99 99 100 100 94 91 64 62
59 59 58 57 54 49 45 42 40 38 37 36 36 36 36 34 32 30 32 36 40 45 50 50 53 61 70 72 74 98 98 100 100 100 100 100 100 100 100 93 82 66 62
61 60 59 57 54 50 46 42 40 38 37 36 35 35 34 34 34 33 31 30 32 40 50 56 61 62 63 73 84 98 98 100 100 100 100 99 100 100 100 89 73 67 63
64 62 61 59 52 46 42 40 36 34 33 33 32 31 31 33 33 33 35 35 34 34 37 49 63 68 74 77 80 98 100 98 99 98 99 100 100 100 92 79 73 73 66
64 63 62 54 48 43 39 36 29 26 25 24 22 21 23 25 28 32 35 40 40 39 42 48 55 70 80 81 85 91 100 100 100 100 100 100 99 94 87 80 72 66 63
64 61 55 51 45 39 33 31 26 21 21 20 20 19 17 16 18 22 26 32 42 46 46 48 60 66 71 88 91 92 93 98 100 100 100 100 96 88 79 71 68 66 67
61 58 55 45 35 33 34 34 28 23 23 21 20 20 17 15 14 15 15 18 25 38 53 65 72 82 96 94 96 97 96 95 94 94 91 86 83 79 75 70 66 64 60
54 47 38 32 29 28 30 34 38 32 25 20 19 19 18 17 16 16 14 12 14 18 26 78 96 99 99 100 100 100 100 96 94 91 89 87 82 80 77 71 68 63 58
46 40 36 31 27 24 22 20 21 23 26 25 24 23 23 22 24 27 26 24 22 23 26 26 76 89 97 98 99 100 100 100 99 96 92 88 83 80 79 71 70 63 66
46 43 41 41 42 48 51 41 31 31 25 21 20 22 25 29 34 41 36 37 41 41 36 28 36 85 96 93 100 100 100 100 100 99 94 90 88 83 79 76 73 78 84
44 44 44 43 40 39 39 47 43 46 50 57 45 28 24 28 36 46 56 59 54 50 48 51 48 44 98 100 100 100 100 100 100 100 100 100 99 92 84 78 76 92 92
38 38 40 41 33 27 29 30 30 32 37 39 42 42 41 37 41 52 60 64 61 63 79 74 53 49 50 75 96 99 100 100 99 100 100 100 100 100 94 91 89 96 95
38 42 42 36 27 33 32 29 33 36 39 45 49 51 58 64 62 59 64 66 61 75 94 100 100 100 98 79 95 99 99 99 99 100 100 100 100 100 99 100 100 99 100
36 34 30 30 35 42 40 39 43 48 51 52 55 58 68 72 71 67 56 54 53 58 70 100 100 100 100 100 99 91 99 99 99 99 100 100 99 100 99 100 100 99 99
Wind_Speed
32 29 23 19 19 22 23 24 21 22 22 16 12 20 24 31 25 28 31 30 32 29 27 29 28 26 24 21 19 16 17 16 14 13 13 15 17 17 16 15 16 16 17
26 21 21 17 18 22 25 28 23 21 22 17 15 18 27 28 27 28 29 30 32 33 30 29 28 26 25 22 19 18 17 17 16 18 16 14 18 20 20 20 21 22 22
22 17 11 13 19 23 21 21 25 22 21 18 16 21 24 32 27 29 30 34 33 34 32 30 29 27 26 24 20 19 20 19 17 18 18 8 11 16 25 23 25 25 23
14 10 10 14 16 18 18 12 15 20 25 21 22 21 25 34 35 34 31 31 35 33 27 28 30 26 24 25 22 22 23 22 22 22 24 25 9 5 9 24 25 22 18
11 8 7 9 11 12 12 10 11 14 17 23 23 19 21 36 30 32 25 33 31 35 40 30 26 22 22 20 22 18 22 24 27 26 24 24 20 24 15 16 28 22 15
5 3 5 11 13 17 10 5 5 10 15 9 6 15 20 21 36 33 29 29 31 25 26 28 25 15 13 16 28 20 23 27 27 24 29 24 23 32 35 25 21 21 17
8 6 7 8 7 11 11 8 5 4 6 9 21 12 3 8 25 29 23 22 20 22 24 18 14 18 18 23 25 26 31 26 25 25 25 21 18 18 35 37 25 18 18
14 12 11 11 11 10 8 8 4 0 2 3 9 7 2 8 15 21 16 23 17 18 20 26 23 19 20 24 24 24 27 28 27 25 23 21 14 10 27 29 24 19 18
16 16 16 16 16 14 11 10 5 3 2 0 4 9 6 7 6 9 11 13 16 14 13 27 26 28 22 22 25 22 19 25 25 27 26 20 16 19 17 19 23 21 22
18 19 20 19 20 18 16 13 8 5 1 2 2 2 11 12 13 16 15 16 20 23 24 24 27 27 25 24 27 25 23 18 17 24 23 21 18 25 21 25 28 26 24
18 18 22 20 20 17 14 13 9 8 6 5 4 2 2 4 8 11 12 21 23 26 27 27 23 26 29 27 31 33 32 27 23 23 30 28 26 26 25 25 26 27 26
18 18 19 17 14 11 11 8 9 10 9 7 6 5 3 1 3 6 9 12 14 15 17 19 21 21 24 29 33 33 32 28 28 33 30 31 28 28 30 26 28 28 26
17 16 14 12 10 10 9 10 11 12 11 10 10 9 7 6 6 7 8 11 13 16 17 19 19 20 22 23 22 23 25 26 26 30 29 33 31 32 29 29 28 27 25
12 11 10 10 10 11 11 12 12 12 11 11 10 10 11 11 12 12 12 12 14 16 18 18 18 19 20 21 22 23 24 27 28 29 31 34 33 30 28 30 29 27 25
8 7 7 7 8 7 8 8 9 9 10 10 11 13 14 14 14 15 15 16 16 16 17 18 18 19 18 19 20 21 24 25 28 30 30 27 28 28 29 28 28 28 27
6 3 5 6 7 9 10 10 11 11 11 11 12 14 15 16 17 18 19 19 19 20 20 19 19 19 19 18 18 20 22 25 26 27 27 26 28 28 28 28 28 28 27
1 2 5 8 9 11 12 14 15 15 15 15 17 17 18 18 18 19 20 21 21 21 22 22 21 20 20 19 20 20 21 23 25 26 26 28 28 28 28 28 28 28 29
2 5 6 7 9 10 12 13 14 15 16 17 16 17 18 18 19 20 21 21 22 22 22 22 23 24 22 21 21 21 22 22 22 21 24 26 26 27 27 27 28 27 27
6 7 9 11 12 14 15 17 18 18 18 18 17 18 18 19 18 19 21 22 22 23 21 20 22 23 24 23 23 23 23 23 24 23 24 25 25 26 27 27 28 28 27
8 10 12 14 15 16 19 19 18 18 20 21 22 23 23 22 22 21 22 22 23 24 24 21 18 20 24 24 22 24 26 25 25 26 28 28 27 27 29 29 27 27 26
10 11 13 14 15 16 18 20 22 22 22 23 24 24 24 24 24 24 23 23 23 24 25 23 19 18 19 21 23 26 27 28 26 30 30 29 28 29 31 29 27 25 22
10 11 12 13 14 15 17 18 21 22 24 25 26 27 25 22 21 21 22 21 21 21 24 25 23 19 17 19 20 22 27 27 29 30 29 29 28 29 30 28 25 23 23
10 11 14 15 17 17 17 19 21 22 21 23 26 27 26 25 23 21 21 22 21 21 22 23 24 23 20 19 17 19 18 21 29 30 30 29 28 28 29 27 25 24 25
13 15 18 20 22 21 21 22 23 23 24 25 27 27 27 26 24 23 23 23 22 21 22 22 24 23 22 21 19 19 19 18 22 31 30 26 26 28 29 27 27 28 27
16 18 21 22 23 21 21 22 24 25 27 27 26 26 26 26 25 24 25 25 23 21 22 23 20 23 26 23 18 19 24 20 18 25 32 30 28 30 30 30 32 31 29
20 22 22 22 23 23 25 26 25 26 26 27 28 26 25 25 26 26 26 25 25 22 20 18 19 21 22 23 23 22 22 22 20 20 30 34 33 32 33 35 36 35 32
Wind_Direction
249 250 239 238 245 229 230 235 242 236 237 247 249 255 241 218 220 218 205 203 205 212 209 207 203 199 202 207 212 217 221 222 220 225 229 226 229 229 234 236 235 235 237
228 220 220 226 232 226 223 229 232 226 230 238 258 250 235 210 223 219 212 210 205 207 208 202 201 202 203 207 214 218 219 221 217 221 234 231 231 225 234 226 233 236 247
184 194 217 233 237 226 226 240 234 235 235 244 264 251 234 228 240 230 215 212 211 215 207 207 204 205 207 210 212 219 223 222 218 225 226 221 231 240 231 232 231 234 241
191 194 225 231 212 218 216 231 241 249 247 248 250 245 235 227 232 234 227 220 212 209 207 210 217 207 209 211 218 227 233 236 234 220 221 231 226 230 218 214 217 225 231
176 186 204 223 218 207 211 231 252 238 234 237 251 246 242 231 228 238 236 218 217 216 219 218 220 218 220 228 233 243 242 251 247 239 232 234 248 255 258 217 195 208 208
141 185 203 217 214 234 235 201 210 219 215 187 172 228 233 259 231 236 245 211 206 199 196 204 211 215 236 239 241 242 245 255 249 249 244 236 238 239 238 233 196 198 213
121 130 185 201 208 203 211 216 241 263 197 194 220 248 271 263 209 218 234 226 201 203 199 213 224 243 258 249 252 247 243 238 230 225 228 228 224 244 250 213 189 235 255
110 104 104 112 107 112 154 196 235 52 6 213 138 110 326 252 218 246 263 238 224 275 248 242 252 270 248 247 244 245 246 240 232 226 225 234 234 242 241 223 202 236 247
104 99 96 89 95 93 97 97 107 100 125 256 124 109 71 176 190 196 217 221 213 236 275 243 240 247 235 243 244 246 239 243 245 242 239 234 204 187 216 208 217 229 237
93 90 83 74 77 73 68 69 63 60 99 321 313 206 216 215 206 219 235 249 252 264 269 248 249 244 246 243 250 254 249 229 242 248 239 242 217 214 223 221 231 236 235
99 93 85 72 68 67 71 75 87 87 93 90 94 120 170 216 235 253 262 254 255 251 261 262 250 244 245 248 252 256 253 241 236 235 234 247 235 228 233 236 230 229 233
91 85 83 88 78 77 88 86 78 84 82 82 81 82 63 37 264 264 258 264 269 269 270 270 267 256 247 243 251 258 262 262 251 241 239 243 237 239 239 234 229 231 237
71 74 79 82 74 63 59 55 51 47 38 27 16 13 4 354 326 301 289 282 277 274 273 274 273 271 266 258 254 257 257 261 260 252 251 242 244 245 235 230 232 232 236
87 81 76 70 58 45 34 31 26 21 13 4 353 342 329 324 322 317 309 301 291 285 280 277 272 268 269 269 257 251 254 257 253 253 253 245 248 236 229 231 234 235 237
89 74 68 51 42 31 21 17 5 1 352 343 331 325 322 316 307 302 296 293 290 284 279 277 276 275 270 268 267 259 252 251 254 256 253 246 233 230 228 232 235 238 239
110 64 23 10 8 2 0 356 354 346 343 336 323 319 316 311 306 304 301 295 288 286 283 278 275 272 274 272 268 261 257 255 254 253 249 236 231 232 234 233 235 244 245
88 6 354 348 342 341 342 344 342 338 332 323 323 322 316 313 310 304 300 297 292 287 284 282 275 271 269 269 269 265 256 255 251 248 244 240 239 236 236 238 240 241 245
297 318 314 325 326 319 325 322 322 321 317 314 314 313 312 313 313 314 312 305 298 291 284 279 277 274 266 262 263 263 260 255 251 245 244 240 237 238 236 238 240 240 243
302 315 320 321 325 322 318 318 319 317 312 317 319 316 315 314 314 308 308 311 311 306 301 293 284 278 273 264 257 258 259 256 252 246 243 240 239 238 238 240 240 240 242
309 313 312 313 314 315 314 313 312 317 320 316 316 318 316 313 309 307 305 303 305 308 310 304 298 293 279 273 259 260 255 252 251 248 245 243 240 239 242 241 240 241 240
299 300 301 301 298 295 293 293 299 306 311 310 309 310 311 310 308 307 309 306 303 300 299 298 295 287 291 282 266 259 262 257 249 247 246 247 245 245 246 246 243 241 237
291 295 296 298 298 297 296 296 297 302 299 300 302 303 305 303 302 302 302 301 302 302 304 306 299 291 287 282 275 262 261 261 257 250 247 247 244 244 247 246 242 228 224
294 292 292 297 301 301 299 294 297 296 296 292 293 296 298 298 298 298 299 301 304 305 305 304 303 298 287 282 288 282 271 263 268 260 251 245 244 242 242 242 231 221 228
303 304 304 304 306 307 307 309 311 310 304 298 293 292 293 294 296 297 297 298 300 301 302 303 302 302 298 283 285 294 290 262 255 265 261 253 243 239 233 232 226 223 231
309 304 305 308 308 309 311 314 315 314 307 303 299 293 290 291 294 294 296 299 299 296 296 299 296 301 303 301 287 296 300 290 260 258 260 253 239 228 228 225 225 225 224
314 312 312 310 311 313 313 313 315 318 317 309 301 296 294 292 293 293 295 295 296 293 287 283 287 292 294 295 292 271 278 281 277 260 256 250 245 238 233 227 223 224 226